Location: Ellerstadt
(49.4644°N, 8.2615°E)
Time: 23:59:52
(UTC+00:00)

SPOT 3 Rocket - Pass Details

Date: 03 March 2021
Orbit: 778 x 795 km, 98.7° (Epoch: 13 April)

Event Time Altitude Azimuth Distance (km) Brightness Sun altitude
Exits shadow 20:18:41 62° 273° (W) 890 3.9 -30.1°
Drops below altitude 10° 20:23:39 10° 340° (NNW) 2,375 6.6 -30.8°
Sets 20:26:01 0° 343° (NNW) 3,310 7.4 -31.1°
